Time,TemperatureF,DewpointF,PressureIn,WindDirection,WindDirectionDegrees,WindSpeedMPH,WindSpeedGustMPH,Humidity,HourlyPrecipIn,Conditions,Clouds,dailyrainin,SoftwareType,DateUTC
2013-07-10 00:01:00,78.3,73.1,30.07,ESE,113,0.0,0.2,84,0.00,,,0.00,WUHU216HW,2013-07-10 04:01:00,
2013-07-10 00:02:00,78.3,73.4,30.07,ESE,113,0.0,0.2,85,0.00,,,0.00,WUHU216HW,2013-07-10 04:02:00,
2013-07-10 00:08:00,78.1,73.3,30.07,ESE,113,0.0,0.0,85,0.00,,,0.00,WUHU216HW,2013-07-10 04:08:00,
2013-07-10 00:13:00,78.1,73.3,30.07,ESE,113,0.0,0.4,85,0.00,,,0.00,WUHU216HW,2013-07-10 04:13:00,
2013-07-10 00:18:00,78.1,73.3,30.07,ESE,113,0.0,0.4,85,0.00,,,0.00,WUHU216HW,2013-07-10 04:18:00,
2013-07-10 00:23:00,78.1,73.3,30.07,ESE,113,0.4,0.9,85,0.00,,,0.00,WUHU216HW,2013-07-10 04:23:00,
2013-07-10 00:28:00,78.1,73.3,30.07,ESE,113,0.4,0.9,85,0.00,,,0.00,WUHU216HW,2013-07-10 04:28:00,
2013-07-10 00:33:00,78.1,73.3,30.07,ESE,113,0.0,0.9,85,0.00,,,0.00,WUHU216HW,2013-07-10 04:33:00,
2013-07-10 00:38:00,78.1,73.3,30.07,ESE,113,0.0,0.4,85,0.00,,,0.00,WUHU216HW,2013-07-10 04:38:00,
2013-07-10 00:43:00,78.1,73.3,30.07,ESE,113,0.0,0.0,85,0.00,,,0.00,WUHU216HW,2013-07-10 04:43:00,
2013-07-10 00:48:00,78.1,73.3,30.07,ESE,113,0.0,0.0,85,0.00,,,0.00,WUHU216HW,2013-07-10 04:48:00,
2013-07-10 00:53:00,78.1,73.3,30.06,ESE,113,0.0,0.0,85,0.00,,,0.00,WUHU216HW,2013-07-10 04:53:00,
2013-07-10 00:59:00,78.1,73.3,30.06,ESE,113,0.0,0.0,85,0.00,,,0.00,WUHU216HW,2013-07-10 04:59:00,
2013-07-10 01:04:00,78.1,73.3,30.06,ESE,113,0.0,0.0,85,0.00,,,0.00,WUHU216HW,2013-07-10 05:04:00,
2013-07-10 01:09:00,77.9,73.1,30.06,ESE,113,0.0,0.0,85,0.00,,,0.00,WUHU216HW,2013-07-10 05:09:00,
2013-07-10 01:14:00,77.9,73.1,30.06,ESE,113,0.0,0.0,85,0.00,,,0.00,WUHU216HW,2013-07-10 05:14:00,
2013-07-10 01:19:00,77.9,73.1,30.05,ESE,113,0.0,0.0,85,0.00,,,0.00,WUHU216HW,2013-07-10 05:19:00,
2013-07-10 01:24:00,77.9,73.1,30.05,ESE,113,0.0,0.4,85,0.00,,,0.00,WUHU216HW,2013-07-10 05:24:00,
2013-07-10 01:29:00,77.9,73.1,30.05,ESE,113,0.0,0.4,85,0.00,,,0.00,WUHU216HW,2013-07-10 05:29:00,
2013-07-10 01:34:00,77.9,73.1,30.05,ESE,113,0.0,0.0,85,0.00,,,0.00,WUHU216HW,2013-07-10 05:34:00,
2013-07-10 01:39:00,77.8,72.9,30.05,ESE,113,0.0,0.0,85,0.00,,,0.00,WUHU216HW,2013-07-10 05:39:00,
2013-07-10 01:45:00,77.8,72.9,30.05,ESE,113,0.0,0.0,85,0.00,,,0.00,WUHU216HW,2013-07-10 05:45:00,
2013-07-10 01:50:00,77.8,72.9,30.05,ESE,113,0.0,0.0,85,0.00,,,0.00,WUHU216HW,2013-07-10 05:50:00,
2013-07-10 01:55:00,77.8,72.9,30.05,ESE,113,0.0,0.0,85,0.00,,,0.00,WUHU216HW,2013-07-10 05:55:00,
2013-07-10 02:00:00,77.8,72.9,30.05,ESE,113,0.4,0.4,85,0.00,,,0.00,WUHU216HW,2013-07-10 06:00:00,
2013-07-10 02:05:00,77.6,72.7,30.05,ESE,113,0.0,0.4,85,0.00,,,0.00,WUHU216HW,2013-07-10 06:05:00,
2013-07-10 02:10:00,77.6,72.7,30.05,ESE,113,0.0,0.4,85,0.00,,,0.00,WUHU216HW,2013-07-10 06:10:00,
2013-07-10 02:15:00,77.6,72.7,30.05,ESE,113,0.0,0.0,85,0.00,,,0.00,WUHU216HW,2013-07-10 06:15:00,
2013-07-10 02:20:00,77.4,72.5,30.05,ESE,113,0.0,0.0,85,0.00,,,0.00,WUHU216HW,2013-07-10 06:20:00,
2013-07-10 02:26:00,77.4,72.5,30.05,ESE,113,0.0,0.0,85,0.00,,,0.00,WUHU216HW,2013-07-10 06:26:00,
2013-07-10 02:31:00,77.4,72.5,30.04,ESE,113,0.0,0.2,85,0.00,,,0.00,WUHU216HW,2013-07-10 06:31:00,
2013-07-10 02:36:00,77.4,72.5,30.04,ESE,113,0.4,0.4,85,0.00,,,0.00,WUHU216HW,2013-07-10 06:36:00,
2013-07-10 02:41:00,77.4,72.5,30.04,ESE,113,0.4,0.4,85,0.00,,,0.00,WUHU216HW,2013-07-10 06:41:00,
2013-07-10 02:46:00,77.2,72.4,30.04,ESE,113,0.0,0.4,85,0.00,,,0.00,WUHU216HW,2013-07-10 06:46:00,
2013-07-10 02:51:00,77.2,72.4,30.04,ESE,113,0.7,0.7,85,0.00,,,0.00,WUHU216HW,2013-07-10 06:51:00,
2013-07-10 02:56:00,77.2,72.4,30.04,ESE,113,0.0,0.7,85,0.00,,,0.00,WUHU216HW,2013-07-10 06:56:00,
2013-07-10 03:01:00,77.2,72.4,30.04,ESE,113,0.0,0.2,85,0.00,,,0.00,WUHU216HW,2013-07-10 07:01:00,
2013-07-10 03:06:00,77.2,72.4,30.04,ESE,113,0.0,0.2,85,0.00,,,0.00,WUHU216HW,2013-07-10 07:06:00,
2013-07-10 03:11:00,77.2,72.4,30.04,ESE,113,0.0,0.0,85,0.00,,,0.00,WUHU216HW,2013-07-10 07:11:00,
2013-07-10 03:16:00,77.2,72.4,30.04,ESE,113,0.0,0.0,85,0.00,,,0.00,WUHU216HW,2013-07-10 07:16:00,
2013-07-10 03:22:00,77.2,72.4,30.04,North,0,0.0,0.0,85,0.00,,,0.00,WUHU216HW,2013-07-10 07:22:00,
2013-07-10 03:27:00,77.2,72.4,30.03,North,0,0.0,0.7,85,0.00,,,0.00,WUHU216HW,2013-07-10 07:27:00,
2013-07-10 03:32:00,77.0,72.2,30.03,North,0,0.0,0.7,85,0.00,,,0.00,WUHU216HW,2013-07-10 07:32:00,
2013-07-10 03:37:00,77.0,72.2,30.03,North,0,0.0,0.0,85,0.00,,,0.00,WUHU216HW,2013-07-10 07:37:00,
2013-07-10 03:43:00,77.0,72.2,30.03,North,0,0.0,0.0,85,0.00,,,0.00,WUHU216HW,2013-07-10 07:43:00,